Weather History for PAEG - September, 2013

Change the Weather History Date:

Saturday, September 21, 2013

  Actual Average Record
Temperature  
Mean Temperature 32 °F -  
Max Temperature 36 °F - - ()
Min Temperature 27 °F - - ()
Degree Days  
Heating Degree Days 34    
Moisture  
Dew Point 28 °F    
Average Humidity 87    
Maximum Humidity 96    
Minimum Humidity 78    
Precipitation  
Precipitation 0.00 in - - ()
Sea Level Pressure  
Sea Level Pressure 29.19 in    
Wind  
Wind Speed 1 mph (ESE)    
Max Wind Speed 6 mph    
Max Gust Speed -    
Visibility 10 miles    
Events      
T = Trace of Precipitation, MM = Missing Value Source: NWS Daily Summary

Daily Weather History Graph

Daily Weather History Graph

Search for Another Location

Airport or City:

Trip Planner

Search our weather history database for the weather conditions in past years. The results will help you decide how hot, cold, wet, or windy it might be!

Date:

Astronomy

Sep. 21, 2013 Rise Set
Actual Time 7:05 AM AKDT 7:27 PM AKDT
Civil Twilight 6:16 AM AKDT 8:16 PM AKDT
Nautical Twilight 5:15 AM AKDT 9:16 PM AKDT
Astronomical Twilight 4:05 AM AKDT 10:26 PM AKDT
Moon 7:26 PM AKDT (9/21) 10:44 AM AKDT (9/21)
Length of Visible Light 14h 00m
Length of Day
12h 21m
Waning Gibbous, 93% of the Moon is Illuminated
Sep 21
Waning Gibbous
Sep 26
Last Quarter
Oct 4
New
Oct 11
First Quarter
Oct 18
Full

Hourly Weather History & Observations

Time (AKDT) Temp. Windchill Dew Point Humidity Pressure Visibility Wind Dir Wind Speed Gust Speed Precip Events Conditions
12:53 AM 27.0 °F - 25.0 °F 92% 29.24 in 10.0 mi Calm Calm - N/A   Overcast
1:53 AM 28.0 °F - 25.0 °F 88% 29.22 in 10.0 mi Calm Calm - N/A   Overcast
2:53 AM 28.0 °F - 25.0 °F 88% 29.21 in 10.0 mi Calm Calm - N/A   Overcast
3:53 AM 28.0 °F - 26.1 °F 92% 29.20 in 10.0 mi Calm Calm - N/A   Overcast
4:53 AM 28.0 °F - 25.0 °F 88% 29.18 in 10.0 mi Calm Calm - N/A   Overcast
5:10 AM 28.4 °F - 24.8 °F 86% 29.15 in 10.0 mi Calm Calm - N/A   Overcast
5:53 AM 28.0 °F - 25.0 °F 88% 29.17 in 10.0 mi Calm Calm - N/A   Overcast
6:30 AM 28.4 °F - 24.8 °F 86% 29.14 in 10.0 mi Calm Calm - N/A   Overcast
6:53 AM 28.0 °F - 26.1 °F 92% 29.17 in 10.0 mi Calm Calm - N/A   Overcast
7:53 AM 28.0 °F - 25.0 °F 88% 29.17 in 10.0 mi Calm Calm - N/A   Overcast
8:53 AM 28.9 °F - 27.0 °F 92% 29.18 in 10.0 mi Calm Calm - N/A   Overcast
9:53 AM 30.9 °F 27.5 °F 27.0 °F 85% 29.18 in 10.0 mi East 3.5 mph - N/A   Overcast
10:53 AM 33.1 °F - 27.0 °F 78% 29.17 in 10.0 mi Calm Calm - N/A   Overcast
11:53 AM 33.1 °F 27.7 °F 28.0 °F 82% 29.18 in 10.0 mi ESE 5.8 mph - N/A   Overcast
12:53 PM 34.0 °F 31.0 °F 28.0 °F 79% 29.18 in 10.0 mi SE 3.5 mph - N/A   Overcast
1:53 PM 34.0 °F 28.8 °F 28.9 °F 82% 29.18 in 10.0 mi ESE 5.8 mph - N/A   Overcast
2:53 PM 35.1 °F - 30.0 °F 82% 29.18 in 10.0 mi Calm Calm - N/A   Overcast
3:53 PM 36.0 °F 31.1 °F 30.0 °F 79% 29.18 in 10.0 mi ESE 5.8 mph - N/A   Overcast
4:53 PM 36.0 °F - 30.0 °F 79% 29.19 in 10.0 mi Calm Calm - N/A   Overcast
5:53 PM 35.1 °F - 30.9 °F 85% 29.20 in 10.0 mi Calm Calm - N/A   Overcast
6:53 PM 34.0 °F - 32.0 °F 92% 29.20 in 10.0 mi Calm Calm - N/A   Overcast
7:53 PM 33.1 °F - 30.9 °F 92% 29.21 in 10.0 mi Calm Calm - N/A   Overcast
8:53 PM 33.1 °F - 32.0 °F 96% 29.21 in 10.0 mi Calm Calm - N/A   Overcast
9:53 PM 33.1 °F - 30.9 °F 92% 29.22 in 10.0 mi Calm Calm - N/A   Overcast
10:53 PM 32.0 °F - 30.9 °F 96% 29.22 in 10.0 mi Calm Calm - N/A   Overcast
11:53 PM 33.1 °F - 30.9 °F 92% 29.21 in 10.0 mi Calm Calm - N/A   Overcast